Regional Weather Roundup
Issued by NWS

Home | Current Version | Previous Version | Text Only | Print | Product List | Glossary Off
Versions: 1 2 3 4 5 6 7 8 9 10 11 12 13 14 15 16 17 18 19 20 21 22 23 24 25 26 27 28 29 30 31 32 33 34 35 36 37 38 39 40 41 42 43 44 45 46 47 48 49 50

000
ASUS43 KLSX 170007
RWRMO

WEATHER SUMMARY FOR MISSOURI
NATIONAL WEATHER SERVICE SPRINGFIELD MO
700 PM CDT WED APR 16 2014

NOTE: "FAIR" INDICATES FEW OR NO CLOUDS BELOW 12,000 FEET WITH NO
       SIGNIFICANT WEATHER AND/OR OBSTRUCTIONS TO VISIBILITY.
       CURRENT SKY AND/OR WEATHER CONDITIONS ARE NOT AVAILABLE FOR
       CHILLICOTHE AND FARMINGTON.

MOZ001>031-035>038-043-044-053-054-170100-
...NORTHERN AND WESTERN MISSOURI...

CITY           SKY/WX    TMP DP  RH WIND       PRES   REMARKS
KANSAS CTY INT CLOUDY    61  31  32 S23G33    29.86R
6HR MIN TEMP:  60; 6HR MAX TEMP:  65;

KANSAS C DTWN  PTSUNNY   63  33  32 S15G23    29.88R
6HR MIN TEMP:  62; 6HR MAX TEMP:  67;

LEE`S SUMMIT   PTCLDY    61  31  32 S15G22    29.90R
6HR MIN TEMP:  60; 6HR MAX TEMP:  65;

ST JOSEPH      PTSUNNY   62  33  33 S22       29.81S
6HR MIN TEMP:  62; 6HR MAX TEMP:  67;

CHILLICOTHE      N/A     63  32  31 S13G21    29.89R
6HR MIN TEMP:  60; 6HR MAX TEMP:  66;

KIRKSVILLE     MOCLDY    59  29  31 S16G28    29.92S
6HR MIN TEMP:  59; 6HR MAX TEMP:  64;


$$
MOZ066>068-077>081-088>096-101>105-170100-
...SOUTHWEST MISSOURI...

CITY           SKY/WX    TMP DP  RH WIND       PRES   REMARKS
SPRINGFIELD    CLEAR     60  26  27 S15       29.97R
6HR MIN TEMP:  57; 6HR MAX TEMP:  63;

JOPLIN         CLEAR     61  31  32 S15G23    29.97R
6HR MIN TEMP:  61; 6HR MAX TEMP:  64;


$$
MOZ032>034-039>042-045>050-055>058-069>072-170100-
...CENTRAL MISSOURI...

CITY           SKY/WX    TMP DP  RH WIND       PRES   REMARKS
COLUMBIA       PTCLDY    59  26  28 S17G26    29.98R
6HR MIN TEMP:  58; 6HR MAX TEMP:  62;

JEFFERSON CITY CLEAR     59  25  27 S15       29.98R
6HR MIN TEMP:  57; 6HR MAX TEMP:  62;

ROLLA          CLEAR     54  26  34 S14       30.00R
6HR MIN TEMP:  53; 6HR MAX TEMP:  58;

SEDALIA        PTCLDY    61  31  32 S16       29.95R
6HR MIN TEMP:  61; 6HR MAX TEMP:  65;

WHITEMAN AFB   CLEAR     63  27  25 SW18G26   29.93R
OSAGE BEACH    PTCLDY    57  25  28 S12G21    30.01R

$$
MOZ051-052-059>065-170100-
...EAST CENTRAL MISSOURI...

CITY           SKY/WX    TMP DP  RH WIND       PRES   REMARKS
ST LOUIS INTL  MOCLDY    56  22  26 S18G28    30.05F
6HR MIN TEMP:  54; 6HR MAX TEMP:  59;

SPIRIT OF STL  PTCLDY    56  21  25 S13G21    30.03S
6HR MIN TEMP:  54; 6HR MAX TEMP:  59;

ST CHARLES     CLEAR     54  26  34 S17       30.04S
6HR MIN TEMP:  53; 6HR MAX TEMP:  58;


$$
MOZ072>076-082>087-097>100-106>115-170100-
...SOUTH CENTRAL AND SOUTHEAST MISSOURI...

CITY           SKY/WX    TMP DP  RH WIND       PRES   REMARKS
CAPE GIRARDEAU CLOUDY    53  34  48 S9        30.13S
6HR MIN TEMP:  52; 6HR MAX TEMP:  56;

FARMINGTON     CLEAR     54  23  30 S13       30.10R
6HR MIN TEMP:  52; 6HR MAX TEMP:  55;

POPLAR BLUFF   MOCLDY    54  32  43 SE8       30.11F
6HR MIN TEMP:  51; 6HR MAX TEMP:  56;

WEST PLAINS    CLEAR     53  26  35 S12       30.06S
6HR MIN TEMP:  51; 6HR MAX TEMP:  56;


$$



USA.gov is the U.S. government's official web portal to all federal, state and local government web resources and services.